Time,TemperatureF,DewpointF,PressureIn,WindDirection,WindDirectionDegrees,WindSpeedMPH,WindSpeedGustMPH,Humidity,HourlyPrecipIn,Conditions,Clouds,dailyrainin,SoftwareType,DateUTC
2013-05-17 00:01:00,62.3,47.3,29.89,West,270,0.0,2.0,58,0.00,,,-99.99,WeatherLink 5.7,2013-05-17 04:01:00,
2013-05-17 00:11:00,62.1,46.2,29.89,West,270,0.0,1.0,56,0.00,,,-99.99,WeatherLink 5.7,2013-05-17 04:11:00,
2013-05-17 00:21:00,61.9,45.1,29.89,West,270,0.0,2.0,54,0.00,,,-99.99,WeatherLink 5.7,2013-05-17 04:21:00,
2013-05-17 00:31:00,61.8,44.0,29.90,North,-999,0.0,0.0,52,0.00,,,-99.99,WeatherLink 5.7,2013-05-17 04:31:00,
2013-05-17 00:41:00,61.6,44.3,29.90,North,-999,0.0,0.0,53,0.00,,,-99.99,WeatherLink 5.7,2013-05-17 04:41:00,
2013-05-17 00:51:00,61.3,45.0,29.90,North,-999,0.0,0.0,55,0.00,,,-99.99,WeatherLink 5.7,2013-05-17 04:51:00,
2013-05-17 01:01:00,60.9,46.0,29.91,North,-999,0.0,0.0,58,0.00,,,-99.99,WeatherLink 5.7,2013-05-17 05:01:00,
2013-05-17 01:11:00,60.6,46.2,29.92,West,270,0.0,1.0,59,0.00,,,-99.99,WeatherLink 5.7,2013-05-17 05:11:00,
2013-05-17 01:21:00,60.3,45.0,29.92,North,-999,0.0,0.0,57,0.00,,,-99.99,WeatherLink 5.7,2013-05-17 05:21:00,
2013-05-17 01:31:00,60.6,41.3,29.92,NW,315,1.0,3.0,49,0.00,,,-99.99,WeatherLink 5.7,2013-05-17 05:31:00,
2013-05-17 01:41:00,61.5,41.1,29.92,NW,315,1.0,2.0,47,0.00,,,-99.99,WeatherLink 5.7,2013-05-17 05:41:00,
2013-05-17 01:51:00,61.8,40.8,29.92,NW,315,0.0,2.0,46,0.00,,,-99.99,WeatherLink 5.7,2013-05-17 05:51:00,
2013-05-17 02:01:00,61.8,40.8,29.93,West,270,1.0,2.0,46,0.00,,,-99.99,WeatherLink 5.7,2013-05-17 06:01:00,
2013-05-17 02:11:00,61.6,40.6,29.93,West,270,1.0,2.0,46,0.00,,,-99.99,WeatherLink 5.7,2013-05-17 06:11:00,
2013-05-17 02:21:00,61.3,40.3,29.93,West,270,0.0,2.0,46,0.00,,,-99.99,WeatherLink 5.7,2013-05-17 06:21:00,
2013-05-17 02:31:00,60.8,39.9,29.94,West,270,1.0,3.0,46,0.00,,,-99.99,WeatherLink 5.7,2013-05-17 06:31:00,
2013-05-17 02:41:00,60.5,39.6,29.94,WNW,292,1.0,3.0,46,0.00,,,-99.99,WeatherLink 5.7,2013-05-17 06:41:00,
2013-05-17 02:51:00,60.2,39.3,29.94,WNW,292,1.0,2.0,46,0.00,,,-99.99,WeatherLink 5.7,2013-05-17 06:51:00,
2013-05-17 03:01:00,60.0,39.7,29.96,WNW,292,0.0,2.0,47,0.00,,,-99.99,WeatherLink 5.7,2013-05-17 07:01:00,
2013-05-17 03:11:00,59.6,39.3,29.95,WNW,292,1.0,4.0,47,0.00,,,-99.99,WeatherLink 5.7,2013-05-17 07:11:00,
2013-05-17 03:21:00,59.2,39.5,29.95,WNW,292,0.0,2.0,48,0.00,,,-99.99,WeatherLink 5.7,2013-05-17 07:21:00,
2013-05-17 03:31:00,58.9,39.8,29.95,North,-999,0.0,1.0,49,0.00,,,-99.99,WeatherLink 5.7,2013-05-17 07:31:00,
2013-05-17 03:41:00,58.4,40.8,29.96,WNW,292,0.0,2.0,52,0.00,,,-99.99,WeatherLink 5.7,2013-05-17 07:41:00,
2013-05-17 03:52:00,57.8,41.7,29.96,WNW,292,0.0,2.0,55,0.00,,,-99.99,WeatherLink 5.7,2013-05-17 07:52:00,
2013-05-17 04:01:00,57.3,41.3,29.97,WNW,292,0.0,1.0,55,0.00,,,-99.99,WeatherLink 5.7,2013-05-17 08:01:00,
2013-05-17 04:11:00,56.7,40.7,29.97,WNW,292,0.0,1.0,55,0.00,,,-99.99,WeatherLink 5.7,2013-05-17 08:11:00,
2013-05-17 04:21:00,56.3,40.8,29.98,North,-999,0.0,0.0,56,0.00,,,-99.99,WeatherLink 5.7,2013-05-17 08:21:00,
2013-05-17 04:31:00,56.0,41.4,29.97,North,-999,0.0,0.0,58,0.00,,,-99.99,WeatherLink 5.7,2013-05-17 08:31:00,
2013-05-17 04:41:00,55.7,40.7,29.97,WNW,292,0.0,1.0,57,0.00,,,-99.99,WeatherLink 5.7,2013-05-17 08:41:00,
2013-05-17 04:51:00,55.5,42.3,29.98,North,-999,0.0,1.0,61,0.00,,,-99.99,WeatherLink 5.7,2013-05-17 08:51:00,
2013-05-17 05:01:00,55.0,41.8,29.98,North,-999,0.0,0.0,61,0.00,,,-99.99,WeatherLink 5.7,2013-05-17 09:01:00,
2013-05-17 05:11:00,54.7,39.3,29.99,WNW,292,0.0,2.0,56,0.00,,,-99.99,WeatherLink 5.7,2013-05-17 09:11:00,
2013-05-17 05:21:00,55.2,40.7,30.00,WNW,292,0.0,1.0,58,0.00,,,-99.99,WeatherLink 5.7,2013-05-17 09:21:00,
2013-05-17 05:31:00,55.0,40.9,30.00,North,-999,0.0,1.0,59,0.00,,,-99.99,WeatherLink 5.7,2013-05-17 09:31:00,
2013-05-17 05:41:00,54.7,41.9,30.00,WNW,292,0.0,1.0,62,0.00,,,-99.99,WeatherLink 5.7,2013-05-17 09:41:00,
2013-05-17 05:51:00,54.1,40.9,30.01,North,-999,0.0,0.0,61,0.00,,,-99.99,WeatherLink 5.7,2013-05-17 09:51:00,
2013-05-17 06:01:00,54.0,40.4,30.01,WNW,292,0.0,1.0,60,0.00,,,-99.99,WeatherLink 5.7,2013-05-17 10:01:00,
2013-05-17 06:11:00,54.2,40.2,30.02,WNW,292,0.0,1.0,59,0.00,,,-99.99,WeatherLink 5.7,2013-05-17 10:11:00,
2013-05-17 06:21:00,54.4,40.8,30.03,WNW,292,0.0,1.0,60,0.00,,,-99.99,WeatherLink 5.7,2013-05-17 10:21:00,
2013-05-17 06:31:00,54.3,41.6,30.03,WNW,292,0.0,1.0,62,0.00,,,-99.99,WeatherLink 5.7,2013-05-17 10:31:00,
2013-05-17 06:41:00,54.2,41.0,30.04,WNW,292,1.0,2.0,61,0.00,,,-99.99,WeatherLink 5.7,2013-05-17 10:41:00,
2013-05-17 06:51:00,54.2,41.5,30.05,WNW,292,0.0,2.0,62,0.00,,,-99.99,WeatherLink 5.7,2013-05-17 10:51:00,
2013-05-17 07:01:00,54.4,41.6,30.05,WNW,292,0.0,2.0,62,0.00,,,-99.99,WeatherLink 5.7,2013-05-17 11:01:00,
2013-05-17 07:11:00,54.5,41.7,30.06,WNW,292,0.0,1.0,62,0.00,,,-99.99,WeatherLink 5.7,2013-05-17 11:11:00,
2013-05-17 07:21:00,54.7,41.1,30.06,WNW,292,0.0,2.0,60,0.00,,,-99.99,WeatherLink 5.7,2013-05-17 11:21:00,
2013-05-17 07:31:00,55.0,41.4,30.06,NW,315,0.0,3.0,60,0.00,,,-99.99,WeatherLink 5.7,2013-05-17 11:31:00,
2013-05-17 07:41:00,55.3,41.6,30.06,NNW,337,0.0,4.0,60,0.00,,,-99.99,WeatherLink 5.7,2013-05-17 11:41:00,
2013-05-17 07:51:00,55.5,41.4,30.07,West,270,0.0,2.0,59,0.00,,,-99.99,WeatherLink 5.7,2013-05-17 11:51:00,
2013-05-17 08:01:00,55.6,41.5,30.07,West,270,1.0,4.0,59,0.00,,,-99.99,WeatherLink 5.7,2013-05-17 12:01:00,
2013-05-17 08:11:00,55.8,41.2,30.07,West,270,1.0,4.0,58,0.00,,,-99.99,WeatherLink 5.7,2013-05-17 12:11:00,
2013-05-17 08:21:00,55.9,40.9,30.07,West,270,0.0,3.0,57,0.00,,,-99.99,WeatherLink 5.7,2013-05-17 12:21:00,
2013-05-17 08:31:00,56.1,41.1,30.08,NNE,22,1.0,4.0,57,0.00,,,-99.99,WeatherLink 5.7,2013-05-17 12:31:00,
2013-05-17 08:41:00,56.3,40.8,30.09,WNW,292,1.0,4.0,56,0.00,,,-99.99,WeatherLink 5.7,2013-05-17 12:41:00,
2013-05-17 08:51:00,56.4,40.9,30.09,WNW,292,2.0,5.0,56,0.00,,,-99.99,WeatherLink 5.7,2013-05-17 12:51:00,
2013-05-17 09:01:00,56.4,41.3,30.10,WNW,292,1.0,3.0,57,0.00,,,-99.99,WeatherLink 5.7,2013-05-17 13:01:00,
2013-05-17 09:11:00,56.6,41.5,30.09,NNW,337,1.0,2.0,57,0.00,,,-99.99,WeatherLink 5.7,2013-05-17 13:11:00,
2013-05-17 09:21:00,56.9,41.8,30.09,North,0,1.0,4.0,57,0.00,,,-99.99,WeatherLink 5.7,2013-05-17 13:21:00,
2013-05-17 09:31:00,57.1,42.0,30.09,NW,315,1.0,4.0,57,0.00,,,-99.99,WeatherLink 5.7,2013-05-17 13:31:00,
2013-05-17 09:41:00,57.4,41.4,30.09,NW,315,1.0,4.0,55,0.00,,,-99.99,WeatherLink 5.7,2013-05-17 13:41:00,
2013-05-17 09:51:00,57.7,40.7,30.09,WNW,292,2.0,5.0,53,0.00,,,-99.99,WeatherLink 5.7,2013-05-17 13:51:00,
2013-05-17 10:01:00,57.8,41.3,30.10,NW,315,1.0,5.0,54,0.00,,,-99.99,WeatherLink 5.7,2013-05-17 14:01:00,
2013-05-17 10:11:00,58.1,40.6,30.10,WNW,292,2.0,5.0,52,0.00,,,-99.99,WeatherLink 5.7,2013-05-17 14:11:00,
2013-05-17 10:21:00,58.4,40.8,30.09,NW,315,1.0,4.0,52,0.00,,,-99.99,WeatherLink 5.7,2013-05-17 14:21:00,
2013-05-17 10:31:00,59.0,41.4,30.10,NNW,337,1.0,3.0,52,0.00,,,-99.99,WeatherLink 5.7,2013-05-17 14:31:00,
2013-05-17 10:41:00,59.6,41.4,30.10,NW,315,1.0,2.0,51,0.00,,,-99.99,WeatherLink 5.7,2013-05-17 14:41:00,
2013-05-17 10:51:00,60.4,41.1,30.10,NNE,22,1.0,5.0,49,0.00,,,-99.99,WeatherLink 5.7,2013-05-17 14:51:00,
2013-05-17 11:01:00,61.0,41.2,30.10,NNW,337,1.0,4.0,48,0.00,,,-99.99,WeatherLink 5.7,2013-05-17 15:01:00,
2013-05-17 11:11:00,61.6,40.6,30.11,NW,315,1.0,4.0,46,0.00,,,-99.99,WeatherLink 5.7,2013-05-17 15:11:00,
2013-05-17 11:21:00,61.9,40.3,30.11,WNW,292,1.0,4.0,45,0.00,,,-99.99,WeatherLink 5.7,2013-05-17 15:21:00,
2013-05-17 11:31:00,62.4,41.3,30.12,WNW,292,1.0,3.0,46,0.00,,,-99.99,WeatherLink 5.7,2013-05-17 15:31:00,
2013-05-17 11:41:00,63.3,42.2,30.12,North,0,1.0,5.0,46,0.00,,,-99.99,WeatherLink 5.7,2013-05-17 15:41:00,
2013-05-17 11:51:00,63.7,40.8,30.11,North,0,2.0,6.0,43,0.00,,,-99.99,WeatherLink 5.7,2013-05-17 15:51:00,
2013-05-17 12:01:00,63.7,40.8,30.12,NNW,337,1.0,4.0,43,0.00,,,-99.99,WeatherLink 5.7,2013-05-17 16:01:00,
2013-05-17 12:11:00,63.5,41.2,30.12,NW,315,2.0,4.0,44,0.00,,,-99.99,WeatherLink 5.7,2013-05-17 16:11:00,
2013-05-17 12:21:00,63.9,40.3,30.11,NW,315,2.0,7.0,42,0.00,,,-99.99,WeatherLink 5.7,2013-05-17 16:21:00,
2013-05-17 12:31:00,64.0,41.0,30.11,NW,315,1.0,3.0,43,0.00,,,-99.99,WeatherLink 5.7,2013-05-17 16:31:00,
2013-05-17 12:41:00,64.0,40.4,30.12,WNW,292,1.0,5.0,42,0.00,,,-99.99,WeatherLink 5.7,2013-05-17 16:41:00,
2013-05-17 12:51:00,64.4,41.4,30.12,NNE,22,0.0,3.0,43,0.00,,,-99.99,WeatherLink 5.7,2013-05-17 16:51:00,
2013-05-17 13:01:00,64.7,42.3,30.12,NW,315,1.0,4.0,44,0.00,,,-99.99,WeatherLink 5.7,2013-05-17 17:01:00,
2013-05-17 13:11:00,65.0,41.3,30.12,NNW,337,1.0,5.0,42,0.00,,,-99.99,WeatherLink 5.7,2013-05-17 17:11:00,
2013-05-17 13:21:00,65.0,41.9,30.12,NNW,337,1.0,4.0,43,0.00,,,-99.99,WeatherLink 5.7,2013-05-17 17:21:00,
2013-05-17 13:31:00,64.5,39.6,30.12,WNW,292,1.0,3.0,40,0.00,,,-99.99,WeatherLink 5.7,2013-05-17 17:31:00,
2013-05-17 13:41:00,64.2,40.6,30.12,NE,45,1.0,4.0,42,0.00,,,-99.99,WeatherLink 5.7,2013-05-17 17:41:00,
2013-05-17 13:51:00,65.0,40.1,30.12,NNW,337,1.0,4.0,40,0.00,,,-99.99,WeatherLink 5.7,2013-05-17 17:51:00,
2013-05-17 14:01:00,65.6,40.6,30.12,NW,315,1.0,4.0,40,0.00,,,-99.99,WeatherLink 5.7,2013-05-17 18:01:00,
2013-05-17 14:11:00,66.0,41.6,30.11,NW,315,1.0,4.0,41,0.00,,,-99.99,WeatherLink 5.7,2013-05-17 18:11:00,
2013-05-17 14:21:00,67.0,41.2,30.11,North,0,1.0,3.0,39,0.00,,,-99.99,WeatherLink 5.7,2013-05-17 18:21:00,
2013-05-17 14:31:00,67.7,41.8,30.11,WNW,292,1.0,4.0,39,0.00,,,-99.99,WeatherLink 5.7,2013-05-17 18:31:00,
2013-05-17 14:41:00,68.3,43.0,30.11,WNW,292,1.0,3.0,40,0.00,,,-99.99,WeatherLink 5.7,2013-05-17 18:41:00,
2013-05-17 14:51:00,69.5,42.1,30.11,North,0,1.0,3.0,37,0.00,,,-99.99,WeatherLink 5.7,2013-05-17 18:51:00,
2013-05-17 15:01:00,70.6,42.3,30.11,East,90,1.0,4.0,36,0.00,,,-99.99,WeatherLink 5.7,2013-05-17 19:01:00,
2013-05-17 15:11:00,71.0,42.0,30.11,North,0,1.0,3.0,35,0.00,,,-99.99,WeatherLink 5.7,2013-05-17 19:11:00,
2013-05-17 15:21:00,70.8,41.8,30.10,NW,315,1.0,4.0,35,0.00,,,-99.99,WeatherLink 5.7,2013-05-17 19:21:00,
2013-05-17 15:31:00,71.1,42.0,30.10,NNW,337,1.0,3.0,35,0.00,,,-99.99,WeatherLink 5.7,2013-05-17 19:31:00,
2013-05-17 15:41:00,72.0,41.3,30.10,North,0,0.0,3.0,33,0.00,,,-99.99,WeatherLink 5.7,2013-05-17 19:41:00,
2013-05-17 15:51:00,72.3,43.1,30.11,North,0,0.0,2.0,35,0.00,,,-99.99,WeatherLink 5.7,2013-05-17 19:51:00,
2013-05-17 16:01:00,72.1,42.9,30.11,NNW,337,1.0,4.0,35,0.00,,,-99.99,WeatherLink 5.7,2013-05-17 20:01:00,
2013-05-17 16:11:00,72.1,42.2,30.11,ENE,67,1.0,3.0,34,0.00,,,-99.99,WeatherLink 5.7,2013-05-17 20:11:00,
2013-05-17 16:21:00,72.3,42.3,30.10,North,0,0.0,3.0,34,0.00,,,-99.99,WeatherLink 5.7,2013-05-17 20:21:00,
2013-05-17 16:31:00,72.2,41.5,30.10,WSW,247,1.0,4.0,33,0.00,,,-99.99,WeatherLink 5.7,2013-05-17 20:31:00,
2013-05-17 16:41:00,71.7,41.0,30.10,NW,315,1.0,3.0,33,0.00,,,-99.99,WeatherLink 5.7,2013-05-17 20:41:00,
2013-05-17 16:51:00,71.0,40.4,30.11,NW,315,1.0,4.0,33,0.00,,,-99.99,WeatherLink 5.7,2013-05-17 20:51:00,
2013-05-17 17:01:00,70.7,40.9,30.10,NNW,337,1.0,3.0,34,0.00,,,-99.99,WeatherLink 5.7,2013-05-17 21:01:00,
2013-05-17 17:11:00,70.5,40.0,30.10,WNW,292,1.0,4.0,33,0.00,,,-99.99,WeatherLink 5.7,2013-05-17 21:11:00,
2013-05-17 17:21:00,70.3,39.8,30.11,WNW,292,1.0,4.0,33,0.00,,,-99.99,WeatherLink 5.7,2013-05-17 21:21:00,
2013-05-17 17:31:00,70.1,39.6,30.12,NW,315,1.0,4.0,33,0.00,,,-99.99,WeatherLink 5.7,2013-05-17 21:31:00,
2013-05-17 17:41:00,69.9,39.5,30.11,NNW,337,1.0,3.0,33,0.00,,,-99.99,WeatherLink 5.7,2013-05-17 21:41:00,
2013-05-17 17:51:00,69.8,42.3,30.11,NNW,337,0.0,2.0,37,0.00,,,-99.99,WeatherLink 5.7,2013-05-17 21:51:00,
2013-05-17 18:01:00,69.4,42.0,30.11,NNW,337,0.0,2.0,37,0.00,,,-99.99,WeatherLink 5.7,2013-05-17 22:01:00,
2013-05-17 18:11:00,69.1,40.3,30.12,WNW,292,1.0,4.0,35,0.00,,,-99.99,WeatherLink 5.7,2013-05-17 22:11:00,
2013-05-17 18:21:00,69.0,41.6,30.12,WNW,292,0.0,2.0,37,0.00,,,-99.99,WeatherLink 5.7,2013-05-17 22:21:00,
2013-05-17 18:31:00,68.6,42.6,30.12,WNW,292,0.0,1.0,39,0.00,,,-99.99,WeatherLink 5.7,2013-05-17 22:31:00,
2013-05-17 18:41:00,68.2,42.9,30.12,WNW,292,0.0,1.0,40,0.00,,,-99.99,WeatherLink 5.7,2013-05-17 22:41:00,
2013-05-17 18:51:00,67.6,43.7,30.13,WNW,292,0.0,1.0,42,0.00,,,-99.99,WeatherLink 5.7,2013-05-17 22:51:00,
2013-05-17 19:01:00,67.1,43.2,30.13,North,-999,0.0,0.0,42,0.00,,,-99.99,WeatherLink 5.7,2013-05-17 23:01:00,
2013-05-17 19:11:00,66.8,42.3,30.13,North,-999,0.0,0.0,41,0.00,,,-99.99,WeatherLink 5.7,2013-05-17 23:11:00,
2013-05-17 19:21:00,66.5,42.1,30.14,North,-999,0.0,0.0,41,0.00,,,-99.99,WeatherLink 5.7,2013-05-17 23:21:00,
2013-05-17 19:31:00,66.3,41.9,30.14,North,-999,0.0,0.0,41,0.00,,,-99.99,WeatherLink 5.7,2013-05-17 23:31:00,
2013-05-17 19:41:00,66.0,42.2,30.14,North,-999,0.0,0.0,42,0.00,,,-99.99,WeatherLink 5.7,2013-05-17 23:41:00,
2013-05-17 19:51:00,65.6,42.5,30.15,North,-999,0.0,0.0,43,0.00,,,-99.99,WeatherLink 5.7,2013-05-17 23:51:00,
2013-05-17 20:01:00,65.1,42.0,30.15,North,-999,0.0,0.0,43,0.00,,,-99.99,WeatherLink 5.7,2013-05-18 00:01:00,
2013-05-17 20:11:00,64.6,42.2,30.16,North,-999,0.0,0.0,44,0.00,,,-99.99,WeatherLink 5.7,2013-05-18 00:11:00,
2013-05-17 20:21:00,64.0,42.8,30.16,WNW,292,0.0,1.0,46,0.00,,,-99.99,WeatherLink 5.7,2013-05-18 00:21:00,
2013-05-17 20:31:00,63.5,41.2,30.16,North,-999,0.0,1.0,44,0.00,,,-99.99,WeatherLink 5.7,2013-05-18 00:31:00,
2013-05-17 20:41:00,63.3,44.9,30.17,North,-999,0.0,0.0,51,0.00,,,-99.99,WeatherLink 5.7,2013-05-18 00:41:00,
2013-05-17 20:51:00,62.6,42.1,30.18,North,-999,0.0,0.0,47,0.00,,,-99.99,WeatherLink 5.7,2013-05-18 00:51:00,
2013-05-17 21:01:00,62.0,44.2,30.18,North,-999,0.0,0.0,52,0.00,,,-99.99,WeatherLink 5.7,2013-05-18 01:01:00,
2013-05-17 21:11:00,61.3,44.0,30.18,North,-999,0.0,0.0,53,0.00,,,-99.99,WeatherLink 5.7,2013-05-18 01:11:00,
2013-05-17 21:21:00,60.8,45.0,30.18,North,-999,0.0,0.0,56,0.00,,,-99.99,WeatherLink 5.7,2013-05-18 01:21:00,
2013-05-17 21:31:00,59.8,45.4,30.19,North,-999,0.0,0.0,59,0.00,,,-99.99,WeatherLink 5.7,2013-05-18 01:31:00,
2013-05-17 21:41:00,58.6,45.2,30.20,North,-999,0.0,0.0,61,0.00,,,-99.99,WeatherLink 5.7,2013-05-18 01:41:00,
2013-05-17 21:51:00,57.3,44.8,30.20,North,-999,0.0,0.0,63,0.00,,,-99.99,WeatherLink 5.7,2013-05-18 01:51:00,
2013-05-17 22:01:00,56.7,44.7,30.20,North,-999,0.0,0.0,64,0.00,,,-99.99,WeatherLink 5.7,2013-05-18 02:01:00,
2013-05-17 22:11:00,56.2,44.6,30.20,North,-999,0.0,0.0,65,0.00,,,-99.99,WeatherLink 5.7,2013-05-18 02:11:00,
2013-05-17 22:21:00,55.9,44.7,30.20,North,-999,0.0,0.0,66,0.00,,,-99.99,WeatherLink 5.7,2013-05-18 02:21:00,
2013-05-17 22:31:00,56.1,45.3,30.21,North,-999,0.0,0.0,67,0.00,,,-99.99,WeatherLink 5.7,2013-05-18 02:31:00,
2013-05-17 22:41:00,55.6,44.8,30.20,North,-999,0.0,0.0,67,0.00,,,-99.99,WeatherLink 5.7,2013-05-18 02:41:00,
2013-05-17 22:51:00,54.7,43.6,30.20,North,-999,0.0,0.0,66,0.00,,,-99.99,WeatherLink 5.7,2013-05-18 02:51:00,
2013-05-17 23:01:00,54.4,42.5,30.20,North,-999,0.0,0.0,64,0.00,,,-99.99,WeatherLink 5.7,2013-05-18 03:01:00,
2013-05-17 23:11:00,54.6,42.7,30.20,North,-999,0.0,0.0,64,0.00,,,-99.99,WeatherLink 5.7,2013-05-18 03:11:00,
2013-05-17 23:21:00,54.6,43.9,30.21,North,-999,0.0,1.0,67,0.00,,,-99.99,WeatherLink 5.7,2013-05-18 03:21:00,
2013-05-17 23:31:00,54.2,43.5,30.21,North,-999,0.0,0.0,67,0.00,,,-99.99,WeatherLink 5.7,2013-05-18 03:31:00,
2013-05-17 23:41:00,54.1,44.2,30.21,North,-999,0.0,0.0,69,0.00,,,-99.99,WeatherLink 5.7,2013-05-18 03:41:00,
2013-05-17 23:51:00,53.5,43.6,30.21,North,-999,0.0,0.0,69,0.00,,,-99.99,WeatherLink 5.7,2013-05-18 03:51:00,